Year,Month,Day,Hour,Minute,Value (Times are PST for temperature in C)
2013,09,12,00,00,17.60
2013,09,12,00,01,17.60
2013,09,12,00,02,17.60
2013,09,12,00,03,17.50
2013,09,12,00,04,17.50
2013,09,12,00,05,17.50
2013,09,12,00,06,17.50
2013,09,12,00,07,17.50
2013,09,12,00,08,17.50
2013,09,12,00,09,17.50
2013,09,12,00,10,17.50
2013,09,12,00,11,17.40
2013,09,12,00,12,17.40
2013,09,12,00,13,17.40
2013,09,12,00,14,17.40
2013,09,12,00,15,17.40
2013,09,12,00,16,17.40
2013,09,12,00,17,17.40
2013,09,12,00,18,17.40
2013,09,12,00,19,17.30
2013,09,12,00,20,17.30
2013,09,12,00,21,17.30
2013,09,12,00,22,17.30
2013,09,12,00,23,17.30
2013,09,12,00,24,17.30
2013,09,12,00,25,17.30
2013,09,12,00,26,17.20
2013,09,12,00,27,17.20
2013,09,12,00,28,17.20
2013,09,12,00,29,17.20
2013,09,12,00,30,17.20
2013,09,12,00,31,17.20
2013,09,12,00,32,17.20
2013,09,12,00,33,17.20
2013,09,12,00,34,17.20
2013,09,12,00,35,17.10
2013,09,12,00,36,17.10
2013,09,12,00,37,17.10
2013,09,12,00,38,17.10
2013,09,12,00,39,17.10
2013,09,12,00,40,17.10
2013,09,12,00,41,17.10
2013,09,12,00,42,17.10
2013,09,12,00,43,17.10
2013,09,12,00,44,17.10
2013,09,12,00,45,17.10
2013,09,12,00,46,17.20
2013,09,12,00,47,17.20
2013,09,12,00,48,17.20
2013,09,12,00,49,17.20
2013,09,12,00,50,17.20
2013,09,12,00,51,17.20
2013,09,12,00,52,17.20
2013,09,12,00,53,17.20
2013,09,12,00,54,17.30
2013,09,12,00,55,17.30
2013,09,12,00,56,17.30
2013,09,12,00,57,17.30
2013,09,12,00,58,17.30
2013,09,12,00,59,17.30
2013,09,12,01,00,17.30
2013,09,12,01,01,17.40
2013,09,12,01,02,17.40
2013,09,12,01,03,17.40
2013,09,12,01,04,17.40
2013,09,12,01,05,17.40
2013,09,12,01,06,17.40
2013,09,12,01,07,17.30
2013,09,12,01,08,17.30
2013,09,12,01,09,17.30
2013,09,12,01,10,17.30
2013,09,12,01,11,17.30
2013,09,12,01,12,17.30
2013,09,12,01,13,17.30
2013,09,12,01,14,17.30
2013,09,12,01,15,17.30
2013,09,12,01,16,17.30
2013,09,12,01,17,17.30
2013,09,12,01,18,17.30
2013,09,12,01,19,17.30
2013,09,12,01,20,17.30
2013,09,12,01,21,17.30
2013,09,12,01,22,17.30
2013,09,12,01,23,17.30
2013,09,12,01,24,17.30
2013,09,12,01,25,17.30
2013,09,12,01,26,17.30
2013,09,12,01,27,17.30
2013,09,12,01,28,17.20
2013,09,12,01,29,17.20
2013,09,12,01,30,17.20
2013,09,12,01,31,17.20
2013,09,12,01,32,17.20
2013,09,12,01,33,17.20
2013,09,12,01,34,17.20
2013,09,12,01,35,17.20
2013,09,12,01,36,17.10
2013,09,12,01,37,17.10
2013,09,12,01,38,17.10
2013,09,12,01,39,17.10
2013,09,12,01,40,17.10
2013,09,12,01,41,17.10
2013,09,12,01,42,17.00
2013,09,12,01,43,17.00
2013,09,12,01,44,17.00
2013,09,12,01,45,17.00
2013,09,12,01,46,17.00
2013,09,12,01,47,16.90
2013,09,12,01,48,16.90
2013,09,12,01,49,16.90
2013,09,12,01,50,16.90
2013,09,12,01,51,16.90
2013,09,12,01,52,16.90
2013,09,12,01,53,16.90
2013,09,12,01,54,16.90
2013,09,12,01,55,16.80
2013,09,12,01,56,16.80
2013,09,12,01,57,16.80
2013,09,12,01,58,16.80
2013,09,12,01,59,16.80
2013,09,12,02,00,16.80
2013,09,12,02,01,16.80
2013,09,12,02,02,16.80
2013,09,12,02,03,16.80
2013,09,12,02,04,16.80
2013,09,12,02,05,16.80
2013,09,12,02,06,16.80
2013,09,12,02,07,16.80
2013,09,12,02,08,16.70
2013,09,12,02,09,16.70
2013,09,12,02,10,16.70
2013,09,12,02,11,16.70
2013,09,12,02,12,16.70
2013,09,12,02,13,16.70
2013,09,12,02,14,16.70
2013,09,12,02,15,16.70
2013,09,12,02,16,16.70
2013,09,12,02,17,16.60
2013,09,12,02,18,16.60
2013,09,12,02,19,16.60
2013,09,12,02,20,16.60
2013,09,12,02,21,16.60
2013,09,12,02,22,16.60
2013,09,12,02,23,16.50
2013,09,12,02,24,16.50
2013,09,12,02,25,16.40
2013,09,12,02,26,16.40
2013,09,12,02,27,16.40
2013,09,12,02,28,16.40
2013,09,12,02,29,16.40
2013,09,12,02,30,16.40
2013,09,12,02,31,16.40
2013,09,12,02,32,16.40
2013,09,12,02,33,16.40
2013,09,12,02,34,16.40
2013,09,12,02,35,16.30
2013,09,12,02,36,16.30
2013,09,12,02,37,16.30
2013,09,12,02,38,16.30
2013,09,12,02,39,16.30
2013,09,12,02,40,16.30
2013,09,12,02,41,16.30
2013,09,12,02,42,16.30
2013,09,12,02,43,16.20
2013,09,12,02,44,16.20
2013,09,12,02,45,16.20
2013,09,12,02,46,16.20
2013,09,12,02,47,16.20
2013,09,12,02,48,16.20
2013,09,12,02,49,16.20
2013,09,12,02,50,16.20
2013,09,12,02,51,16.10
2013,09,12,02,52,16.10
2013,09,12,02,53,16.10
2013,09,12,02,54,16.10
2013,09,12,02,55,16.10
2013,09,12,02,56,16.10
2013,09,12,02,57,16.10
2013,09,12,02,58,16.00
2013,09,12,02,59,16.00
2013,09,12,03,00,16.00
2013,09,12,03,01,15.90
2013,09,12,03,02,15.90
2013,09,12,03,03,15.90
2013,09,12,03,04,15.90
2013,09,12,03,05,15.90
2013,09,12,03,06,15.80
2013,09,12,03,07,15.80
2013,09,12,03,08,15.80
2013,09,12,03,09,15.80
2013,09,12,03,10,15.80
2013,09,12,03,11,15.80
2013,09,12,03,12,15.80
2013,09,12,03,13,15.70
2013,09,12,03,14,15.70
2013,09,12,03,15,15.70
2013,09,12,03,16,15.70
2013,09,12,03,17,15.70
2013,09,12,03,18,15.70
2013,09,12,03,19,15.60
2013,09,12,03,20,15.60
2013,09,12,03,21,15.60
2013,09,12,03,22,15.60
2013,09,12,03,23,15.60
2013,09,12,03,24,15.60
2013,09,12,03,25,15.50
2013,09,12,03,26,15.50
2013,09,12,03,27,15.50
2013,09,12,03,28,15.40
2013,09,12,03,29,15.40
2013,09,12,03,30,15.40
2013,09,12,03,31,15.40
2013,09,12,03,32,15.40
2013,09,12,03,33,15.40
2013,09,12,03,34,15.40
2013,09,12,03,35,15.40
2013,09,12,03,36,15.40
2013,09,12,03,37,15.40
2013,09,12,03,38,15.40
2013,09,12,03,39,15.40
2013,09,12,03,40,15.30
2013,09,12,03,41,15.30
2013,09,12,03,42,15.30
2013,09,12,03,43,15.30
2013,09,12,03,44,15.30
2013,09,12,03,45,15.30
2013,09,12,03,46,15.30
2013,09,12,03,47,15.30
2013,09,12,03,48,15.30
2013,09,12,03,49,15.30
2013,09,12,03,50,15.20
2013,09,12,03,51,15.20
2013,09,12,03,52,15.20
2013,09,12,03,53,15.20
2013,09,12,03,54,15.20
2013,09,12,03,55,15.20
2013,09,12,03,56,15.20
2013,09,12,03,57,15.20
2013,09,12,03,58,15.20
2013,09,12,03,59,15.20
2013,09,12,04,00,15.20
2013,09,12,04,01,15.20
2013,09,12,04,02,15.20
2013,09,12,04,03,15.20
2013,09,12,04,04,15.20
2013,09,12,04,05,15.20
2013,09,12,04,06,15.20
2013,09,12,04,07,15.20
2013,09,12,04,08,15.20
2013,09,12,04,09,15.20
2013,09,12,04,10,15.20
2013,09,12,04,11,15.20
2013,09,12,04,12,15.20
2013,09,12,04,13,15.20
2013,09,12,04,14,15.20
2013,09,12,04,15,15.20
2013,09,12,04,16,15.20
2013,09,12,04,17,15.20
2013,09,12,04,18,15.20
2013,09,12,04,19,15.20
2013,09,12,04,20,15.20
2013,09,12,04,21,15.20
2013,09,12,04,22,15.20
2013,09,12,04,23,15.20
2013,09,12,04,24,15.20
2013,09,12,04,25,15.20
2013,09,12,04,26,15.20
2013,09,12,04,27,15.20
2013,09,12,04,28,15.20
2013,09,12,04,29,15.20
2013,09,12,04,30,15.10
2013,09,12,04,31,15.10
2013,09,12,04,32,15.10
2013,09,12,04,33,15.10
2013,09,12,04,34,15.10
2013,09,12,04,35,15.10
2013,09,12,04,36,15.10
2013,09,12,04,37,15.10
2013,09,12,04,38,15.10
2013,09,12,04,39,15.10
2013,09,12,04,40,15.20
2013,09,12,04,41,15.20
2013,09,12,04,42,15.20
2013,09,12,04,43,15.20
2013,09,12,04,44,15.20
2013,09,12,04,45,15.20
2013,09,12,04,46,15.20
2013,09,12,04,47,15.20
2013,09,12,04,48,15.20
2013,09,12,04,49,15.20
2013,09,12,04,50,15.10
2013,09,12,04,51,15.10
2013,09,12,04,52,15.10
2013,09,12,04,53,15.10
2013,09,12,04,54,15.10
2013,09,12,04,55,15.10
2013,09,12,04,56,15.10
2013,09,12,04,57,15.10
2013,09,12,04,58,15.00
2013,09,12,04,59,15.00
2013,09,12,05,00,15.00
2013,09,12,05,01,15.00
2013,09,12,05,02,15.00
2013,09,12,05,03,14.90
2013,09,12,05,04,14.90
2013,09,12,05,05,14.90
2013,09,12,05,06,14.90
2013,09,12,05,07,14.90
2013,09,12,05,08,14.80
2013,09,12,05,09,14.80
2013,09,12,05,10,14.80
2013,09,12,05,11,14.80
2013,09,12,05,12,14.80
2013,09,12,05,13,14.70
2013,09,12,05,14,14.70
2013,09,12,05,15,14.70
2013,09,12,05,16,14.70
2013,09,12,05,17,14.70
2013,09,12,05,18,14.70
2013,09,12,05,19,14.70
2013,09,12,05,20,14.70
2013,09,12,05,21,14.70
2013,09,12,05,22,14.70
2013,09,12,05,23,14.70
2013,09,12,05,24,14.60
2013,09,12,05,25,14.60
2013,09,12,05,26,14.60
2013,09,12,05,27,14.60
2013,09,12,05,28,14.60
2013,09,12,05,29,14.60
2013,09,12,05,30,14.60
2013,09,12,05,31,14.60
2013,09,12,05,32,14.60
2013,09,12,05,33,14.60
2013,09,12,05,34,14.50
2013,09,12,05,35,14.50
2013,09,12,05,36,14.50
2013,09,12,05,37,14.50
2013,09,12,05,38,14.50
2013,09,12,05,39,14.50
2013,09,12,05,40,14.50
2013,09,12,05,41,14.50
2013,09,12,05,42,14.50
2013,09,12,05,43,14.50
2013,09,12,05,44,14.50
2013,09,12,05,45,14.50
2013,09,12,05,46,14.50
2013,09,12,05,47,14.50
2013,09,12,05,48,14.50
2013,09,12,05,49,14.40
2013,09,12,05,50,14.40
2013,09,12,05,51,14.40
2013,09,12,05,52,14.40
2013,09,12,05,53,14.40
2013,09,12,05,54,14.40
2013,09,12,05,55,14.40
2013,09,12,05,56,14.40
2013,09,12,05,57,14.40
2013,09,12,05,58,14.40
2013,09,12,05,59,14.40
2013,09,12,06,00,14.40
2013,09,12,06,01,14.40
2013,09,12,06,02,14.40
2013,09,12,06,03,14.40
2013,09,12,06,04,14.40
2013,09,12,06,05,14.40
2013,09,12,06,06,14.40
2013,09,12,06,07,14.40
2013,09,12,06,08,14.40
2013,09,12,06,09,14.40
2013,09,12,06,10,14.40
2013,09,12,06,11,14.40
2013,09,12,06,12,14.40
2013,09,12,06,13,14.40
2013,09,12,06,14,14.40
2013,09,12,06,15,14.30
2013,09,12,06,16,14.30
2013,09,12,06,17,14.30
2013,09,12,06,18,14.30
2013,09,12,06,19,14.30
2013,09,12,06,20,14.30
2013,09,12,06,21,14.30
2013,09,12,06,22,14.30
2013,09,12,06,23,14.30
2013,09,12,06,24,14.30
2013,09,12,06,25,14.30
2013,09,12,06,26,14.30
2013,09,12,06,27,14.30
2013,09,12,06,28,14.30
2013,09,12,06,29,14.30
2013,09,12,06,30,14.30
2013,09,12,06,31,14.30
2013,09,12,06,32,14.30
2013,09,12,06,33,14.30
2013,09,12,06,34,14.30
2013,09,12,06,35,14.30
2013,09,12,06,36,14.30
2013,09,12,06,37,14.30
2013,09,12,06,38,14.30
2013,09,12,06,39,14.30
2013,09,12,06,40,14.30
2013,09,12,06,41,14.20
2013,09,12,06,42,14.30
2013,09,12,06,43,14.30
2013,09,12,06,44,14.30
2013,09,12,06,45,14.30
2013,09,12,06,46,14.30
2013,09,12,06,47,14.30
2013,09,12,06,48,14.20
2013,09,12,06,49,14.20
2013,09,12,06,50,14.20
2013,09,12,06,51,14.20
2013,09,12,06,52,14.20
2013,09,12,06,53,14.20
2013,09,12,06,54,14.20
2013,09,12,06,55,14.20
2013,09,12,06,56,14.20
2013,09,12,06,57,14.20
2013,09,12,06,58,14.20
2013,09,12,06,59,14.20
2013,09,12,07,00,14.20
2013,09,12,07,01,14.20
2013,09,12,07,02,14.20
2013,09,12,07,03,14.20
2013,09,12,07,04,14.20
2013,09,12,07,05,14.20
2013,09,12,07,06,14.10
2013,09,12,07,07,14.10
2013,09,12,07,08,14.10
2013,09,12,07,09,14.10
2013,09,12,07,10,14.10
2013,09,12,07,11,14.10
2013,09,12,07,12,14.10
2013,09,12,07,13,14.10
2013,09,12,07,14,14.10
2013,09,12,07,15,14.10
2013,09,12,07,16,14.10
2013,09,12,07,17,14.10
2013,09,12,07,18,14.10
2013,09,12,07,19,14.10
2013,09,12,07,20,14.10
2013,09,12,07,21,14.10
2013,09,12,07,22,14.10
2013,09,12,07,23,14.10
2013,09,12,07,24,14.20
2013,09,12,07,25,14.20
2013,09,12,07,26,14.20
2013,09,12,07,27,14.20
2013,09,12,07,28,14.20
2013,09,12,07,29,14.30
2013,09,12,07,30,14.30
2013,09,12,07,31,14.30
2013,09,12,07,32,14.30
2013,09,12,07,33,14.30
2013,09,12,07,34,14.30
2013,09,12,07,35,14.30
2013,09,12,07,36,14.30
2013,09,12,07,37,14.40
2013,09,12,07,38,14.40
2013,09,12,07,39,14.40
2013,09,12,07,40,14.40
2013,09,12,07,41,14.50
2013,09,12,07,42,14.50
2013,09,12,07,43,14.50
2013,09,12,07,44,14.50
2013,09,12,07,45,14.60
2013,09,12,07,46,14.60
2013,09,12,07,47,14.60
2013,09,12,07,48,14.60
2013,09,12,07,49,14.60
2013,09,12,07,50,14.60
2013,09,12,07,51,14.70
2013,09,12,07,52,14.70
2013,09,12,07,53,14.70
2013,09,12,07,54,14.70
2013,09,12,07,55,14.80
2013,09,12,07,56,14.80
2013,09,12,07,57,14.80
2013,09,12,07,58,14.80
2013,09,12,07,59,14.90
2013,09,12,08,00,14.90
2013,09,12,08,01,14.90
2013,09,12,08,02,14.90
2013,09,12,08,03,14.90
2013,09,12,08,04,14.90
2013,09,12,08,05,14.90
2013,09,12,08,06,15.00
2013,09,12,08,07,15.00
2013,09,12,08,08,15.00
2013,09,12,08,09,15.00
2013,09,12,08,10,15.00
2013,09,12,08,11,15.00
2013,09,12,08,12,15.00
2013,09,12,08,13,15.00
2013,09,12,08,14,15.10
2013,09,12,08,15,15.10
2013,09,12,08,16,15.10
2013,09,12,08,17,15.10
2013,09,12,08,18,15.20
2013,09,12,08,19,15.20
2013,09,12,08,20,15.20
2013,09,12,08,21,15.20
2013,09,12,08,22,15.30
2013,09,12,08,23,15.30
2013,09,12,08,24,15.30
2013,09,12,08,25,15.40
2013,09,12,08,26,15.40
2013,09,12,08,27,15.40
2013,09,12,08,28,15.40
2013,09,12,08,29,15.50
2013,09,12,08,30,15.50
2013,09,12,08,31,15.60
2013,09,12,08,32,15.60
2013,09,12,08,33,15.60
2013,09,12,08,34,15.70
2013,09,12,08,35,15.70
2013,09,12,08,36,15.70
2013,09,12,08,37,15.80
2013,09,12,08,38,15.80
2013,09,12,08,39,15.80
2013,09,12,08,40,15.80
2013,09,12,08,41,15.90
2013,09,12,08,42,15.90
2013,09,12,08,43,15.90
2013,09,12,08,44,15.90
2013,09,12,08,45,16.00
2013,09,12,08,46,16.10
2013,09,12,08,47,16.20
2013,09,12,08,48,16.20
2013,09,12,08,49,16.30
2013,09,12,08,50,16.40
2013,09,12,08,51,16.50
2013,09,12,08,52,16.50
2013,09,12,08,53,16.60
2013,09,12,08,54,16.70
2013,09,12,08,55,16.70
2013,09,12,08,56,16.80
2013,09,12,08,57,16.80
2013,09,12,08,58,16.90
2013,09,12,08,59,16.90
2013,09,12,09,00,17.00
2013,09,12,09,01,17.00
2013,09,12,09,02,17.10
2013,09,12,09,03,17.10
2013,09,12,09,04,17.20
2013,09,12,09,05,17.20
2013,09,12,09,06,17.20
2013,09,12,09,07,17.30
2013,09,12,09,08,17.30
2013,09,12,09,09,17.40
2013,09,12,09,10,17.40
2013,09,12,09,11,17.50
2013,09,12,09,12,17.50
2013,09,12,09,13,17.50
2013,09,12,09,14,17.60
2013,09,12,09,15,17.70
2013,09,12,09,16,17.70
2013,09,12,09,17,17.80
2013,09,12,09,18,17.80
2013,09,12,09,19,17.90
2013,09,12,09,20,18.00
2013,09,12,09,21,18.10
2013,09,12,09,22,18.10
2013,09,12,09,23,18.20
2013,09,12,09,24,18.30
2013,09,12,09,25,18.40
2013,09,12,09,26,18.50
2013,09,12,09,27,18.50
2013,09,12,09,28,18.60
2013,09,12,09,29,18.70
2013,09,12,09,30,18.80
2013,09,12,09,31,18.90
2013,09,12,09,32,19.00
2013,09,12,09,33,19.10
2013,09,12,09,34,19.20
2013,09,12,09,35,19.30
2013,09,12,09,36,19.50
2013,09,12,09,37,19.60
2013,09,12,09,38,19.80
2013,09,12,09,39,19.90
2013,09,12,09,40,20.00
2013,09,12,09,41,20.10
2013,09,12,09,42,20.20
2013,09,12,09,43,20.20
2013,09,12,09,44,20.30
2013,09,12,09,45,20.30
2013,09,12,09,46,20.40
2013,09,12,09,47,20.50
2013,09,12,09,48,20.60
2013,09,12,09,49,20.60
2013,09,12,09,50,20.70
2013,09,12,09,51,20.70
2013,09,12,09,52,20.80
2013,09,12,09,53,20.90
2013,09,12,09,54,20.90
2013,09,12,09,55,21.00
2013,09,12,09,56,21.10
2013,09,12,09,57,21.20
2013,09,12,09,58,21.30
2013,09,12,09,59,21.40
2013,09,12,10,00,21.50
2013,09,12,10,01,21.60
2013,09,12,10,02,21.70
2013,09,12,10,03,21.80
2013,09,12,10,04,21.80
2013,09,12,10,05,21.90
2013,09,12,10,06,21.90
2013,09,12,10,07,22.00
2013,09,12,10,08,22.10
2013,09,12,10,09,22.10
2013,09,12,10,10,22.10
2013,09,12,10,11,22.20
2013,09,12,10,12,22.20
2013,09,12,10,13,22.20
2013,09,12,10,14,22.20
2013,09,12,10,15,22.20
2013,09,12,10,16,22.20
2013,09,12,10,17,22.20
2013,09,12,10,18,22.20
2013,09,12,10,19,22.20
2013,09,12,10,20,22.30
2013,09,12,10,21,22.30
2013,09,12,10,22,22.30
2013,09,12,10,23,22.40
2013,09,12,10,24,22.40
2013,09,12,10,25,22.50
2013,09,12,10,26,22.60
2013,09,12,10,27,22.60
2013,09,12,10,28,22.70
2013,09,12,10,29,22.70
2013,09,12,10,30,22.80
2013,09,12,10,31,22.80
2013,09,12,10,32,22.90
2013,09,12,10,33,22.90
2013,09,12,10,34,22.90
2013,09,12,10,35,23.00
2013,09,12,10,36,23.00
2013,09,12,10,37,23.00
2013,09,12,10,38,23.10
2013,09,12,10,39,23.10
2013,09,12,10,40,23.10
2013,09,12,10,41,23.20
2013,09,12,10,42,23.20
2013,09,12,10,43,23.30
2013,09,12,10,44,23.30
2013,09,12,10,45,23.40
2013,09,12,10,46,23.40
2013,09,12,10,47,23.50
2013,09,12,10,48,23.50
2013,09,12,10,49,23.50
2013,09,12,10,50,23.60
2013,09,12,10,51,23.60
2013,09,12,10,52,23.60
2013,09,12,10,53,23.60
2013,09,12,10,54,23.70
2013,09,12,10,55,23.70
2013,09,12,10,56,23.70
2013,09,12,10,57,23.70
2013,09,12,10,58,23.70
2013,09,12,10,59,23.70
2013,09,12,11,00,23.70
2013,09,12,11,01,23.80
2013,09,12,11,02,23.80
2013,09,12,11,03,23.80
2013,09,12,11,04,23.90
2013,09,12,11,05,23.90
2013,09,12,11,06,24.00
2013,09,12,11,07,24.10
2013,09,12,11,08,24.00
2013,09,12,11,09,24.00
2013,09,12,11,10,23.80
2013,09,12,11,11,23.70
2013,09,12,11,12,23.70
2013,09,12,11,13,23.60
2013,09,12,11,14,23.50
2013,09,12,11,15,23.40
2013,09,12,11,16,23.40
2013,09,12,11,17,23.40
2013,09,12,11,18,23.40
2013,09,12,11,19,23.40
2013,09,12,11,20,23.30
2013,09,12,11,21,23.30
2013,09,12,11,22,23.30
2013,09,12,11,23,23.30
2013,09,12,11,24,23.20
2013,09,12,11,25,23.20
2013,09,12,11,26,23.20
2013,09,12,11,27,23.20
2013,09,12,11,28,23.20
2013,09,12,11,29,23.20
2013,09,12,11,30,23.20
2013,09,12,11,31,23.20
2013,09,12,11,32,23.20
2013,09,12,11,33,23.30
2013,09,12,11,34,23.30
2013,09,12,11,35,23.30
2013,09,12,11,36,23.20
2013,09,12,11,37,23.20
2013,09,12,11,38,23.10
2013,09,12,11,39,23.00
2013,09,12,11,40,23.00
2013,09,12,11,41,23.00
2013,09,12,11,42,22.90
2013,09,12,11,43,22.90
2013,09,12,11,44,22.80
2013,09,12,11,45,22.80
2013,09,12,11,46,22.80
2013,09,12,11,47,22.80
2013,09,12,11,48,22.80
2013,09,12,11,49,22.90
2013,09,12,11,50,22.90
2013,09,12,11,51,22.90
2013,09,12,11,52,22.90
2013,09,12,11,53,22.90
2013,09,12,11,54,22.90
2013,09,12,11,55,22.90
2013,09,12,11,56,22.80
2013,09,12,11,57,22.80
2013,09,12,11,58,22.80
2013,09,12,11,59,22.80
2013,09,12,12,00,22.70
2013,09,12,12,01,22.70
2013,09,12,12,02,22.60
2013,09,12,12,03,22.60
2013,09,12,12,04,22.60
2013,09,12,12,05,22.60
2013,09,12,12,06,22.60
2013,09,12,12,07,22.60
2013,09,12,12,08,22.50
2013,09,12,12,09,22.40
2013,09,12,12,10,22.40
2013,09,12,12,11,22.40
2013,09,12,12,12,22.40
2013,09,12,12,13,22.30
2013,09,12,12,14,22.30
2013,09,12,12,15,22.30
2013,09,12,12,16,22.30
2013,09,12,12,17,22.30
2013,09,12,12,18,22.30
2013,09,12,12,19,22.30
2013,09,12,12,20,22.40
2013,09,12,12,21,22.40
2013,09,12,12,22,22.50
2013,09,12,12,23,22.60
2013,09,12,12,24,22.60
2013,09,12,12,25,22.70
2013,09,12,12,26,22.70
2013,09,12,12,27,22.80
2013,09,12,12,28,22.80
2013,09,12,12,29,22.90
2013,09,12,12,30,22.90
2013,09,12,12,31,22.90
2013,09,12,12,32,23.00
2013,09,12,12,33,23.10
2013,09,12,12,34,23.20
2013,09,12,12,35,23.30
2013,09,12,12,36,23.40
2013,09,12,12,37,23.40
2013,09,12,12,38,23.50
2013,09,12,12,39,23.60
2013,09,12,12,40,23.70
2013,09,12,12,41,23.70
2013,09,12,12,42,23.80
2013,09,12,12,43,23.80
2013,09,12,12,44,23.80
2013,09,12,12,45,23.90
2013,09,12,12,46,23.90
2013,09,12,12,47,23.90
2013,09,12,12,48,23.90
2013,09,12,12,49,24.00
2013,09,12,12,50,24.10
2013,09,12,12,51,24.20
2013,09,12,12,52,24.20
2013,09,12,12,53,24.30
2013,09,12,12,54,24.30
2013,09,12,12,55,24.30
2013,09,12,12,56,24.30
2013,09,12,12,57,24.30
2013,09,12,12,58,24.30
2013,09,12,12,59,24.30
2013,09,12,13,00,24.30
2013,09,12,13,01,24.30
2013,09,12,13,02,24.20
2013,09,12,13,03,24.20
2013,09,12,13,04,24.20
2013,09,12,13,05,24.30
2013,09,12,13,06,24.30
2013,09,12,13,07,24.30
2013,09,12,13,08,24.40
2013,09,12,13,09,24.40
2013,09,12,13,10,24.50
2013,09,12,13,11,24.50
2013,09,12,13,12,24.50
2013,09,12,13,13,24.50
2013,09,12,13,14,24.50
2013,09,12,13,15,24.50
2013,09,12,13,16,24.60
2013,09,12,13,17,24.60
2013,09,12,13,18,24.70
2013,09,12,13,19,24.80
2013,09,12,13,20,24.80
2013,09,12,13,21,24.90
2013,09,12,13,22,24.90
2013,09,12,13,23,24.90
2013,09,12,13,24,24.90
2013,09,12,13,25,25.00
2013,09,12,13,26,25.10
2013,09,12,13,27,25.10
2013,09,12,13,28,25.20
2013,09,12,13,29,25.30
2013,09,12,13,30,25.30
2013,09,12,13,31,25.40
2013,09,12,13,32,25.50
2013,09,12,13,33,25.50
2013,09,12,13,34,25.60
2013,09,12,13,35,25.60
2013,09,12,13,36,25.70
2013,09,12,13,37,25.70
2013,09,12,13,38,25.80
2013,09,12,13,39,25.80
2013,09,12,13,40,25.90
2013,09,12,13,41,25.90
2013,09,12,13,42,26.00
2013,09,12,13,43,26.00
2013,09,12,13,44,26.00
2013,09,12,13,45,26.10
2013,09,12,13,46,26.20
2013,09,12,13,47,26.30
2013,09,12,13,48,26.40
2013,09,12,13,49,26.40
2013,09,12,13,50,26.40
2013,09,12,13,51,26.40
2013,09,12,13,52,26.40
2013,09,12,13,53,26.40
2013,09,12,13,54,26.40
2013,09,12,13,55,26.40
2013,09,12,13,56,26.40
2013,09,12,13,57,26.30
2013,09,12,13,58,26.30
2013,09,12,13,59,26.20
2013,09,12,14,00,26.20
2013,09,12,14,01,26.10
2013,09,12,14,02,26.10
2013,09,12,14,03,26.10
2013,09,12,14,04,26.10
2013,09,12,14,05,26.10
2013,09,12,14,06,26.00
2013,09,12,14,07,26.00
2013,09,12,14,08,25.90
2013,09,12,14,09,25.80
2013,09,12,14,10,25.80
2013,09,12,14,11,25.70
2013,09,12,14,12,25.60
2013,09,12,14,13,25.60
2013,09,12,14,14,25.70
2013,09,12,14,15,25.70
2013,09,12,14,16,25.60
2013,09,12,14,17,25.60
2013,09,12,14,18,25.60
2013,09,12,14,19,25.60
2013,09,12,14,20,25.60
2013,09,12,14,21,25.60
2013,09,12,14,22,25.50
2013,09,12,14,23,25.50
2013,09,12,14,24,25.40
2013,09,12,14,25,25.40
2013,09,12,14,26,25.40
2013,09,12,14,27,25.40
2013,09,12,14,28,25.40
2013,09,12,14,29,25.40
2013,09,12,14,30,25.40
2013,09,12,14,31,25.50
2013,09,12,14,32,25.60
2013,09,12,14,33,25.60
2013,09,12,14,34,25.60
2013,09,12,14,35,25.70
2013,09,12,14,36,25.70
2013,09,12,14,37,25.70
2013,09,12,14,38,25.70
2013,09,12,14,39,25.70
2013,09,12,14,40,25.70
2013,09,12,14,41,25.70
2013,09,12,14,42,25.60
2013,09,12,14,43,25.60
2013,09,12,14,44,25.60
2013,09,12,14,45,25.60
2013,09,12,14,46,25.60
2013,09,12,14,47,25.60
2013,09,12,14,48,25.60
2013,09,12,14,49,25.60
2013,09,12,14,50,25.60
2013,09,12,14,51,25.60
2013,09,12,14,52,25.60
2013,09,12,14,53,25.60
2013,09,12,14,54,25.50
2013,09,12,14,55,25.50
2013,09,12,14,56,25.50
2013,09,12,14,57,25.40
2013,09,12,14,58,25.40
2013,09,12,14,59,25.40
2013,09,12,15,00,25.40
2013,09,12,15,01,25.40
2013,09,12,15,02,25.40
2013,09,12,15,03,25.40
2013,09,12,15,04,25.40
2013,09,12,15,05,25.40
2013,09,12,15,06,25.40
2013,09,12,15,07,25.50
2013,09,12,15,08,25.60
2013,09,12,15,09,25.70
2013,09,12,15,10,25.70
2013,09,12,15,11,25.80
2013,09,12,15,12,25.80
2013,09,12,15,13,25.80
2013,09,12,15,14,25.80
2013,09,12,15,15,25.80
2013,09,12,15,16,25.90
2013,09,12,15,17,25.90
2013,09,12,15,18,25.90
2013,09,12,15,19,26.00
2013,09,12,15,20,26.00
2013,09,12,15,21,26.10
2013,09,12,15,22,26.10
2013,09,12,15,23,26.10
2013,09,12,15,24,26.10
2013,09,12,15,25,26.20
2013,09,12,15,26,26.20
2013,09,12,15,27,26.30
2013,09,12,15,28,26.40
2013,09,12,15,29,26.40
2013,09,12,15,30,26.40
2013,09,12,15,31,26.40
2013,09,12,15,32,26.50
2013,09,12,15,33,26.60
2013,09,12,15,34,26.70
2013,09,12,15,35,26.80
2013,09,12,15,36,26.80
2013,09,12,15,37,26.80
2013,09,12,15,38,26.80
2013,09,12,15,39,26.80
2013,09,12,15,40,26.90
2013,09,12,15,41,26.90
2013,09,12,15,42,26.90
2013,09,12,15,43,26.90
2013,09,12,15,44,26.90
2013,09,12,15,45,26.90
2013,09,12,15,46,27.00
2013,09,12,15,47,27.00
2013,09,12,15,48,27.10
2013,09,12,15,49,27.10
2013,09,12,15,50,27.10
2013,09,12,15,51,27.10
2013,09,12,15,52,27.10
2013,09,12,15,53,27.10
2013,09,12,15,54,27.10
2013,09,12,15,55,27.10
2013,09,12,15,56,27.00
2013,09,12,15,57,26.90
2013,09,12,15,58,26.80
2013,09,12,15,59,26.70
2013,09,12,16,00,26.70
2013,09,12,16,01,26.70
2013,09,12,16,02,26.70
2013,09,12,16,03,26.80
2013,09,12,16,04,26.90
2013,09,12,16,05,27.00
2013,09,12,16,06,27.10
2013,09,12,16,07,27.20
2013,09,12,16,08,27.20
2013,09,12,16,09,27.20
2013,09,12,16,10,27.20
2013,09,12,16,11,27.30
2013,09,12,16,12,27.30
2013,09,12,16,13,27.30
2013,09,12,16,14,27.30
2013,09,12,16,15,27.30
2013,09,12,16,16,27.30
2013,09,12,16,17,27.30
2013,09,12,16,18,27.30
2013,09,12,16,19,27.40
2013,09,12,16,20,27.40
2013,09,12,16,21,27.40
2013,09,12,16,22,27.50
2013,09,12,16,23,27.50
2013,09,12,16,24,27.50
2013,09,12,16,25,27.50
2013,09,12,16,26,27.50
2013,09,12,16,27,27.40
2013,09,12,16,28,27.40
2013,09,12,16,29,27.40
2013,09,12,16,30,27.40
2013,09,12,16,31,27.40
2013,09,12,16,32,27.40
2013,09,12,16,33,27.40
2013,09,12,16,34,27.40
2013,09,12,16,35,27.30
2013,09,12,16,36,27.30
2013,09,12,16,37,27.30
2013,09,12,16,38,27.30
2013,09,12,16,39,27.30
2013,09,12,16,40,27.30
2013,09,12,16,41,27.30
2013,09,12,16,42,27.30
2013,09,12,16,43,27.30
2013,09,12,16,44,27.20
2013,09,12,16,45,27.20
2013,09,12,16,46,27.20
2013,09,12,16,47,27.30
2013,09,12,16,48,27.30
2013,09,12,16,49,27.40
2013,09,12,16,50,27.40
2013,09,12,16,51,27.40
2013,09,12,16,52,27.40
2013,09,12,16,53,27.50
2013,09,12,16,54,27.50
2013,09,12,16,55,27.60
2013,09,12,16,56,27.60
2013,09,12,16,57,27.60
2013,09,12,16,58,27.60
2013,09,12,16,59,27.60
2013,09,12,17,00,27.60
2013,09,12,17,01,27.60
2013,09,12,17,02,27.60
2013,09,12,17,03,27.60
2013,09,12,17,04,27.60
2013,09,12,17,05,27.70
2013,09,12,17,06,27.70
2013,09,12,17,07,27.70
2013,09,12,17,08,27.70
2013,09,12,17,09,27.70
2013,09,12,17,10,27.70
2013,09,12,17,11,27.70
2013,09,12,17,12,27.80
2013,09,12,17,13,27.80
2013,09,12,17,14,27.70
2013,09,12,17,15,27.70
2013,09,12,17,16,27.70
2013,09,12,17,17,27.60
2013,09,12,17,18,27.60
2013,09,12,17,19,27.60